Location: Ames
(42.0350°N, 93.6200°W)
Time: 15:11:26
(UTC-06:00)

ISS - All Passes

Search period start: 01 February 2015 00:00
Search period end: 11 February 2015 00:00
Orbit: 400 x 408 km, 51.6° (Epoch: 01 February)

Date Brightness Start Highest point End Pass type
(mag) Time Alt. Az. Time Alt. Az. Time Alt. Az.
01 Feb - 00:11:32 10° NW 00:13:36 15° N 00:15:40 10° NE night (unlit)
01 Feb - 01:48:12 10° NW 01:50:56 23° NNE 01:53:40 10° ENE night (unlit)
01 Feb - 03:24:24 10° WNW 03:27:42 72° SW 03:30:58 10° SE night (unlit)
01 Feb - 20:04:41 10° SSW 20:07:29 27° SE 20:10:19 10° ENE visible
01 Feb - 21:40:44 10° W 21:43:51 40° NNW 21:46:59 10° NE night (unlit)
01 Feb - 23:18:48 10° NW 23:21:00 16° N 23:23:11 10° NE night (unlit)
02 Feb - 00:55:59 10° NW 00:58:23 19° NNE 01:00:49 10° ENE night (unlit)
02 Feb - 02:32:05 10° NW 02:35:22 62° NNE 02:38:38 10° ESE night (unlit)
02 Feb - 04:09:24 10° W 04:11:33 16° SW 04:13:38 10° S night (unlit)
02 Feb - 19:13:29 10° SSE 19:15:18 14° SE 19:17:13 10° E visible
02 Feb - 20:48:11 10° WSW 20:51:27 68° NNW 20:54:44 10° NE night (unlit)
02 Feb - 22:25:56 10° WNW 22:28:24 19° NNW 22:30:51 10° NE night (unlit)
03 Feb - 00:03:36 10° NW 00:05:46 16° N 00:07:57 10° NE night (unlit)
03 Feb - 01:39:50 10° NW 01:42:56 37° NNE 01:46:03 10° E night (unlit)
03 Feb - 03:16:25 10° WNW 03:19:21 29° SW 03:22:16 10° SSE night (unlit)
03 Feb - 19:55:51 10° SW 19:59:05 65° SE 20:02:21 10° ENE visible
03 Feb - 21:33:02 10° WNW 21:35:48 24° NNW 21:38:34 10° NE night (unlit)
03 Feb - 23:11:04 10° NW 23:13:07 15° N 23:15:10 10° NE night (unlit)
04 Feb - 00:47:34 10° NW 00:50:24 26° NNE 00:53:15 10° E night (unlit)
04 Feb - 02:23:50 10° WNW 02:27:04 57° SW 02:30:18 10° SE night (unlit)
04 Feb - 19:03:49 10° SSW 19:06:46 33° SE 19:09:47 10° ENE visible
04 Feb - 20:40:12 10° W 20:43:14 34° NNW 20:46:17 10° NE visible
04 Feb - 22:18:18 10° NW 22:20:25 16° N 22:22:33 10° NE night (unlit)
04 Feb - 23:55:17 10° NW 23:57:48 20° NNE 00:00:19 10° ENE night (unlit)
05 Feb - 01:31:24 10° NW 01:34:41 76° NNE 01:37:59 10° ESE night (unlit)
05 Feb - 03:09:10 10° WSW 03:10:48 13° SW 03:12:20 10° SSW night (unlit)
05 Feb - 18:12:16 10° S 18:14:30 18° SE 18:16:49 10° E visible
05 Feb - 19:47:30 10° WSW 19:50:43 55° NNW 19:53:57 10° NE visible
05 Feb - 21:25:22 10° WNW 21:27:44 18° NNW 21:30:04 10° NE night (unlit)
05 Feb - 23:02:53 10° NW 23:05:06 17° N 23:07:21 10° NE night (unlit)
06 Feb - 00:39:02 10° NW 00:42:12 43° NNE 00:45:22 10° ESE night (unlit)
06 Feb - 02:15:48 10° W 02:18:32 24° SW 02:21:14 10° S night (unlit)
06 Feb - 18:55:00 10° SW 18:58:15 81° SE 19:01:32 10° ENE visible
06 Feb - 20:32:23 10° WNW 20:35:02 22° NNW 20:37:42 10° NE visible
06 Feb - 22:10:19 10° NW 22:12:22 15° N 22:14:26 10° NE night (unlit)
06 Feb - 23:46:42 10° NW 23:49:37 29° NNE 23:52:33 10° E night (unlit)
07 Feb - 01:23:01 10° WNW 01:26:12 45° SW 01:29:21 10° SSE night (unlit)
07 Feb - 18:02:45 10° SSW 18:05:50 41° SE 18:08:56 10° ENE visible
07 Feb - 19:39:26 10° W 19:42:22 30° NNW 19:45:20 10° NE visible
07 Feb - 21:17:32 10° NW 21:19:36 15° N 21:21:40 10° NE night (unlit)
07 Feb - 22:54:20 10° NW 22:56:56 21° NNE 22:59:34 10° ENE night (unlit)
08 Feb - 00:30:28 10° NW 00:33:45 88° SW 00:37:03 10° SE night (unlit)
08 Feb - 02:09:10 10° WSW 02:09:48 10° SW 02:10:17 10° SW night (unlit)
08 Feb - 17:10:54 10° S 17:13:27 22° SE 17:16:03 10° E daylight
08 Feb - 18:46:35 10° WSW 18:49:44 46° NNW 18:52:56 10° NE visible
08 Feb - 20:24:33 10° NW 20:26:49 17° N 20:29:04 10° NNE visible
08 Feb - 22:01:53 10° NW 22:04:11 17° N 22:06:30 10° NE night (unlit)
08 Feb - 23:37:59 10° NW 23:41:13 51° NNE 23:44:26 10° ESE night (unlit)
09 Feb - 01:15:00 10° W 01:17:28 20° SW 01:19:54 10° S night (unlit)
09 Feb - 16:20:01 10° SSE 16:21:07 11° SE 16:22:20 10° ESE daylight
09 Feb - 17:53:55 10° WSW 17:57:10 83° NW 18:00:27 10° NE daylight
09 Feb - 19:31:29 10° WNW 19:34:02 20° NNW 19:36:34 10° NE visible
09 Feb - 21:09:18 10° NW 21:11:23 16° N 21:13:28 10° NE visible
09 Feb - 22:45:34 10° NW 22:48:34 32° NNE 22:51:35 10° E night (unlit)
10 Feb - 00:22:00 10° WNW 00:25:04 36° SW 00:28:07 10° SSE night (unlit)
10 Feb - 17:01:29 10° SW 17:04:38 51° SE 17:07:50 10° ENE daylight
10 Feb - 18:38:25 10° W 18:41:16 27° NNW 18:44:07 10° NE visible
10 Feb - 20:16:29 10° NW 20:18:31 15° N 20:20:33 10° NE visible
10 Feb - 21:53:08 10° NW 21:55:50 23° NNE 21:58:33 10° ENE night (unlit)
10 Feb - 23:29:18 10° WNW 23:32:34 72° SW 23:35:50 10° SE night (unlit)
